Time,TemperatureF,DewpointF,PressureIn,WindDirection,WindDirectionDegrees,WindSpeedMPH,WindSpeedGustMPH,Humidity,HourlyPrecipIn,Conditions,Clouds,dailyrainin,SoftwareType,DateUTC
2013-09-16 00:00:00,45.5,40.3,30.29,NNE,25,11.2,15.4,82,0.00,,,0.00,VWS V14.01,2013-09-16 04:00:00,
2013-09-16 00:01:00,45.5,40.0,30.29,NW,324,2.8,9.8,81,0.00,,,0.00,VWS V14.01,2013-09-16 04:01:00,
2013-09-16 00:06:00,45.5,40.0,30.29,NW,305,4.2,12.6,81,0.00,,,0.00,VWS V14.01,2013-09-16 04:06:00,
2013-09-16 00:11:00,45.3,39.8,30.29,ENE,65,4.2,12.6,81,0.00,,,0.00,VWS V14.01,2013-09-16 04:11:00,
2013-09-16 00:16:00,45.2,39.4,30.29,NE,44,2.8,14.0,80,0.00,,,0.00,VWS V14.01,2013-09-16 04:16:00,
2013-09-16 00:21:00,45.0,39.5,30.30,WNW,291,1.4,14.0,81,0.00,,,0.00,VWS V14.01,2013-09-16 04:21:00,
2013-09-16 00:26:00,44.7,38.3,30.30,NNE,26,1.4,14.0,78,0.00,,,0.00,VWS V14.01,2013-09-16 04:26:00,
2013-09-16 00:31:00,44.3,37.9,30.30,ENE,64,4.2,14.0,78,0.00,,,0.00,VWS V14.01,2013-09-16 04:31:00,
2013-09-16 00:36:00,44.1,38.0,30.30,West,277,1.4,14.0,79,0.00,,,0.00,VWS V14.01,2013-09-16 04:36:00,
2013-09-16 00:41:00,43.9,37.8,30.30,North,349,2.8,14.0,79,0.00,,,0.00,VWS V14.01,2013-09-16 04:41:00,
2013-09-16 00:46:00,43.8,38.0,30.30,NW,321,1.4,14.0,80,0.00,,,0.00,VWS V14.01,2013-09-16 04:46:00,
2013-09-16 00:51:00,43.7,38.0,30.30,NNE,26,7.0,14.0,80,0.00,,,0.00,VWS V14.01,2013-09-16 04:51:00,
2013-09-16 00:56:00,43.7,38.0,30.30,North,350,4.2,14.0,80,0.00,,,0.00,VWS V14.01,2013-09-16 04:56:00,
2013-09-16 01:00:00,45.5,40.3,30.29,NNE,25,11.2,15.4,82,0.00,,,0.00,VWS V14.01,2013-09-16 05:00:00,
2013-09-16 01:01:00,43.7,38.0,30.31,NNE,33,1.4,14.0,80,0.00,,,0.00,VWS V14.01,2013-09-16 05:01:00,
2013-09-16 01:06:00,43.8,38.0,30.31,SSE,165,1.4,14.0,80,0.00,,,0.00,VWS V14.01,2013-09-16 05:06:00,
2013-09-16 01:11:00,43.9,38.1,30.31,ENE,71,9.8,14.0,80,0.00,,,0.00,VWS V14.01,2013-09-16 05:11:00,
2013-09-16 01:16:00,44.0,38.5,30.31,ENE,58,5.6,14.0,81,0.00,,,0.00,VWS V14.01,2013-09-16 05:16:00,
2013-09-16 01:21:00,44.0,37.9,30.31,NE,44,8.4,14.0,79,0.00,,,0.00,VWS V14.01,2013-09-16 05:21:00,
2013-09-16 01:26:00,43.9,37.8,30.31,NE,51,1.4,14.0,79,0.00,,,0.00,VWS V14.01,2013-09-16 05:26:00,
2013-09-16 01:31:00,43.8,38.0,30.32,NE,43,0.0,14.0,80,0.00,,,0.00,VWS V14.01,2013-09-16 05:31:00,
2013-09-16 01:36:00,43.7,37.3,30.32,ENE,77,0.0,14.0,78,0.00,,,0.00,VWS V14.01,2013-09-16 05:36:00,
2013-09-16 01:41:00,43.6,37.2,30.31,NNE,29,0.0,14.0,78,0.00,,,0.00,VWS V14.01,2013-09-16 05:41:00,
2013-09-16 01:46:00,43.4,37.0,30.32,ENE,62,4.2,14.0,78,0.00,,,0.00,VWS V14.01,2013-09-16 05:46:00,
2013-09-16 01:51:00,43.3,37.2,30.32,ENE,59,2.8,14.0,79,0.00,,,0.00,VWS V14.01,2013-09-16 05:51:00,
2013-09-16 01:56:00,43.3,36.9,30.32,ENE,65,0.0,14.0,78,0.00,,,0.00,VWS V14.01,2013-09-16 05:56:00,
2013-09-16 02:00:00,43.3,37.2,30.32,NNE,21,5.6,14.0,79,0.00,,,0.00,VWS V14.01,2013-09-16 06:00:00,
2013-09-16 02:01:00,43.3,37.2,30.32,ENE,66,0.0,7.0,79,0.00,,,0.00,VWS V14.01,2013-09-16 06:01:00,
2013-09-16 02:06:00,43.2,37.1,30.32,NW,316,0.0,7.0,79,0.00,,,0.00,VWS V14.01,2013-09-16 06:06:00,
2013-09-16 02:11:00,43.1,37.4,30.32,NNW,343,1.4,7.0,80,0.00,,,0.00,VWS V14.01,2013-09-16 06:11:00,
2013-09-16 02:16:00,43.2,37.1,30.32,West,269,0.0,8.4,79,0.00,,,0.00,VWS V14.01,2013-09-16 06:16:00,
2013-09-16 02:21:00,43.2,37.5,30.32,North,5,5.6,8.4,80,0.00,,,0.00,VWS V14.01,2013-09-16 06:21:00,
2013-09-16 02:26:00,43.2,37.1,30.32,NE,56,2.8,8.4,79,0.00,,,0.00,VWS V14.01,2013-09-16 06:26:00,
2013-09-16 02:31:00,43.4,37.3,30.33,West,277,1.4,8.4,79,0.00,,,0.00,VWS V14.01,2013-09-16 06:31:00,
2013-09-16 02:36:00,43.4,37.7,30.33,ENE,78,0.0,8.4,80,0.00,,,0.00,VWS V14.01,2013-09-16 06:36:00,
2013-09-16 02:41:00,43.5,37.1,30.32,NNE,15,2.8,8.4,78,0.00,,,0.00,VWS V14.01,2013-09-16 06:41:00,
2013-09-16 02:46:00,43.6,37.2,30.33,NNE,18,1.4,8.4,78,0.00,,,0.00,VWS V14.01,2013-09-16 06:46:00,
2013-09-16 02:51:00,43.7,37.6,30.32,WNW,282,4.2,8.4,79,0.00,,,0.00,VWS V14.01,2013-09-16 06:51:00,
2013-09-16 02:56:00,43.8,37.4,30.33,ESE,112,1.4,8.4,78,0.00,,,0.00,VWS V14.01,2013-09-16 06:56:00,
2013-09-16 03:00:00,43.3,37.2,30.32,NNE,21,5.6,14.0,79,0.00,,,0.00,VWS V14.01,2013-09-16 07:00:00,
2013-09-16 03:01:00,43.9,37.2,30.33,NNE,18,5.6,12.6,77,0.00,,,0.00,VWS V14.01,2013-09-16 07:01:00,
2013-09-16 03:06:00,43.9,37.5,30.33,NE,43,4.2,12.6,78,0.00,,,0.00,VWS V14.01,2013-09-16 07:06:00,
2013-09-16 03:11:00,44.0,37.6,30.33,WSW,238,2.8,18.2,78,0.00,,,0.00,VWS V14.01,2013-09-16 07:11:00,
2013-09-16 03:16:00,44.0,37.9,30.33,NE,39,2.8,18.2,79,0.00,,,0.00,VWS V14.01,2013-09-16 07:16:00,
2013-09-16 03:21:00,44.0,37.6,30.33,NNE,29,4.2,18.2,78,0.00,,,0.00,VWS V14.01,2013-09-16 07:21:00,
2013-09-16 03:26:00,43.9,37.2,30.33,North,351,7.0,18.2,77,0.00,,,0.00,VWS V14.01,2013-09-16 07:26:00,
2013-09-16 03:31:00,43.9,36.8,30.33,NW,316,4.2,18.2,76,0.00,,,0.00,VWS V14.01,2013-09-16 07:31:00,
2013-09-16 03:36:00,43.9,36.8,30.33,NNW,338,5.6,18.2,76,0.00,,,0.00,VWS V14.01,2013-09-16 07:36:00,
2013-09-16 03:41:00,43.9,37.2,30.34,NNE,25,8.4,18.2,77,0.00,,,0.00,VWS V14.01,2013-09-16 07:41:00,
2013-09-16 03:46:00,43.9,37.5,30.34,ESE,102,2.8,18.2,78,0.00,,,0.00,VWS V14.01,2013-09-16 07:46:00,
2013-09-16 03:51:00,44.0,37.6,30.34,WNW,285,1.4,18.2,78,0.00,,,0.00,VWS V14.01,2013-09-16 07:51:00,
2013-09-16 03:56:00,44.2,37.1,30.34,NNW,348,4.2,18.2,76,0.00,,,0.00,VWS V14.01,2013-09-16 07:56:00,
2013-09-16 04:00:00,44.1,37.4,30.34,NE,56,1.4,18.2,77,0.00,,,0.00,VWS V14.01,2013-09-16 08:00:00,
2013-09-16 04:01:00,44.1,37.4,30.34,WNW,295,4.2,4.2,77,0.00,,,0.00,VWS V14.01,2013-09-16 08:01:00,
2013-09-16 04:06:00,43.9,37.2,30.35,NE,40,1.4,7.0,77,0.00,,,0.00,VWS V14.01,2013-09-16 08:06:00,
2013-09-16 04:11:00,43.8,37.1,30.35,NE,53,4.2,8.4,77,0.00,,,0.00,VWS V14.01,2013-09-16 08:11:00,
2013-09-16 04:16:00,43.8,37.4,30.35,ENE,64,0.0,8.4,78,0.00,,,0.00,VWS V14.01,2013-09-16 08:16:00,
2013-09-16 04:21:00,43.6,36.9,30.36,North,8,1.4,8.4,77,0.00,,,0.00,VWS V14.01,2013-09-16 08:21:00,
2013-09-16 04:26:00,43.6,36.9,30.36,ESE,102,2.8,8.4,77,0.00,,,0.00,VWS V14.01,2013-09-16 08:26:00,
2013-09-16 04:31:00,43.5,37.1,30.36,North,8,4.2,8.4,78,0.00,,,0.00,VWS V14.01,2013-09-16 08:31:00,
2013-09-16 04:36:00,43.4,37.3,30.36,NNE,22,5.6,8.4,79,0.00,,,0.00,VWS V14.01,2013-09-16 08:36:00,
2013-09-16 04:41:00,43.4,37.3,30.36,NNW,333,0.0,8.4,79,0.00,,,0.00,VWS V14.01,2013-09-16 08:41:00,
2013-09-16 04:46:00,43.3,36.6,30.36,WNW,302,1.4,8.4,77,0.00,,,0.00,VWS V14.01,2013-09-16 08:46:00,
2013-09-16 04:51:00,43.5,37.1,30.36,West,264,0.0,9.8,78,0.00,,,0.00,VWS V14.01,2013-09-16 08:51:00,
2013-09-16 04:56:00,43.5,36.8,30.36,NE,56,5.6,9.8,77,0.00,,,0.00,VWS V14.01,2013-09-16 08:56:00,
2013-09-16 05:00:00,44.1,37.4,30.34,NE,56,1.4,18.2,77,0.00,,,0.00,VWS V14.01,2013-09-16 09:00:00,
2013-09-16 05:01:00,43.6,36.5,30.36,NNW,336,8.4,9.8,76,0.00,,,0.00,VWS V14.01,2013-09-16 09:01:00,
2013-09-16 05:06:00,43.7,37.0,30.37,SW,218,1.4,9.8,77,0.00,,,0.00,VWS V14.01,2013-09-16 09:06:00,
2013-09-16 05:11:00,43.7,36.6,30.37,NE,43,1.4,9.8,76,0.00,,,0.00,VWS V14.01,2013-09-16 09:11:00,
2013-09-16 05:16:00,43.7,36.0,30.37,ESE,107,1.4,9.8,74,0.00,,,0.00,VWS V14.01,2013-09-16 09:16:00,
2013-09-16 05:21:00,43.8,36.4,30.37,NE,36,2.8,11.2,75,0.00,,,0.00,VWS V14.01,2013-09-16 09:21:00,
2013-09-16 05:26:00,43.8,36.7,30.37,WNW,290,0.0,11.2,76,0.00,,,0.00,VWS V14.01,2013-09-16 09:26:00,
2013-09-16 05:30:00,43.7,36.3,30.38,NNE,19,5.6,12.6,75,0.00,,,0.00,VWS V14.01,2013-09-16 09:30:00,
2013-09-16 05:35:00,43.8,36.4,30.38,West,276,0.0,12.6,75,0.00,,,0.00,VWS V14.01,2013-09-16 09:35:00,
2013-09-16 05:40:00,43.9,37.2,30.38,North,360,2.8,12.6,77,0.00,,,0.00,VWS V14.01,2013-09-16 09:40:00,
2013-09-16 05:45:00,43.9,37.2,30.38,SW,235,1.4,12.6,77,0.00,,,0.00,VWS V14.01,2013-09-16 09:45:00,
2013-09-16 05:50:00,44.0,36.9,30.38,SSE,158,0.0,12.6,76,0.00,,,0.00,VWS V14.01,2013-09-16 09:50:00,
2013-09-16 05:55:00,44.0,36.6,30.38,ENE,67,0.0,12.6,75,0.00,,,0.00,VWS V14.01,2013-09-16 09:55:00,
2013-09-16 06:00:00,44.0,36.6,30.38,ESE,103,7.0,12.6,75,0.00,,,0.00,VWS V14.01,2013-09-16 10:00:00,
2013-09-16 06:01:00,44.0,35.6,30.38,SE,128,4.2,9.8,72,0.00,,,0.00,VWS V14.01,2013-09-16 10:01:00,
2013-09-16 06:06:00,44.2,36.5,30.39,NNE,27,2.8,11.2,74,0.00,,,0.00,VWS V14.01,2013-09-16 10:06:00,
2013-09-16 06:11:00,44.2,36.1,30.38,ENE,62,1.4,11.2,73,0.00,,,0.00,VWS V14.01,2013-09-16 10:11:00,
2013-09-16 06:16:00,44.1,35.7,30.38,NW,326,1.4,11.2,72,0.00,,,0.00,VWS V14.01,2013-09-16 10:16:00,
2013-09-16 06:21:00,44.1,35.7,30.39,NW,304,0.0,11.2,72,0.00,,,0.00,VWS V14.01,2013-09-16 10:21:00,
2013-09-16 06:26:00,44.0,35.9,30.39,South,191,2.8,11.2,73,0.00,,,0.00,VWS V14.01,2013-09-16 10:26:00,
2013-09-16 06:31:00,43.9,36.2,30.39,NE,41,5.6,11.2,74,0.00,,,0.00,VWS V14.01,2013-09-16 10:31:00,
2013-09-16 06:35:00,43.9,35.8,30.39,North,11,2.8,11.2,73,0.00,,,0.00,VWS V14.01,2013-09-16 10:35:00,
2013-09-16 06:40:00,43.9,36.2,30.39,SW,226,1.4,11.2,74,0.00,,,0.00,VWS V14.01,2013-09-16 10:40:00,
2013-09-16 06:45:00,43.7,36.3,30.40,East,94,8.4,11.2,75,0.00,,,0.00,VWS V14.01,2013-09-16 10:45:00,
2013-09-16 06:50:00,43.7,36.0,30.40,East,98,7.0,15.4,74,0.00,,,0.00,VWS V14.01,2013-09-16 10:50:00,
2013-09-16 06:55:00,43.8,36.4,30.40,ENE,75,1.4,15.4,75,0.00,,,0.00,VWS V14.01,2013-09-16 10:55:00,
2013-09-16 07:00:00,43.9,36.5,30.40,NNW,347,4.2,15.4,75,0.00,,,0.00,VWS V14.01,2013-09-16 11:00:00,
2013-09-16 07:05:00,43.9,36.2,30.40,East,99,1.4,15.4,74,0.00,,,0.00,VWS V14.01,2013-09-16 11:05:00,
2013-09-16 07:10:00,43.9,36.5,30.41,East,91,5.6,15.4,75,0.00,,,0.00,VWS V14.01,2013-09-16 11:10:00,
2013-09-16 07:15:00,43.9,36.2,30.41,East,96,0.0,15.4,74,0.00,,,0.00,VWS V14.01,2013-09-16 11:15:00,
2013-09-16 07:20:00,43.9,35.8,30.41,ENE,74,1.4,15.4,73,0.00,,,0.00,VWS V14.01,2013-09-16 11:20:00,
2013-09-16 07:25:00,43.9,35.8,30.41,NNW,327,2.8,15.4,73,0.00,,,0.00,VWS V14.01,2013-09-16 11:25:00,
2013-09-16 07:30:00,44.2,35.8,30.41,ESE,108,2.8,15.4,72,0.00,,,0.00,VWS V14.01,2013-09-16 11:30:00,
2013-09-16 07:35:00,44.1,36.0,30.41,NNE,18,2.8,15.4,73,0.00,,,0.00,VWS V14.01,2013-09-16 11:35:00,
2013-09-16 07:40:00,44.1,36.0,30.42,NE,39,5.6,15.4,73,0.00,,,0.00,VWS V14.01,2013-09-16 11:40:00,
2013-09-16 07:45:00,44.6,36.2,30.42,ENE,76,5.6,15.4,72,0.00,,,0.00,VWS V14.01,2013-09-16 11:45:00,
2013-09-16 07:50:00,45.0,35.8,30.42,ESE,119,1.4,15.4,70,0.00,,,0.00,VWS V14.01,2013-09-16 11:50:00,
2013-09-16 07:55:00,45.3,35.7,30.42,ENE,76,2.8,15.4,69,0.00,,,0.00,VWS V14.01,2013-09-16 11:55:00,
2013-09-16 08:00:00,45.6,36.4,30.42,NNW,333,0.0,7.0,70,0.00,,,0.00,VWS V14.01,2013-09-16 12:00:00,
2013-09-16 08:05:00,45.8,36.2,30.43,ESE,109,2.8,11.2,69,0.00,,,0.00,VWS V14.01,2013-09-16 12:05:00,
2013-09-16 08:10:00,45.9,35.6,30.43,NNE,16,2.8,11.2,67,0.00,,,0.00,VWS V14.01,2013-09-16 12:10:00,
2013-09-16 08:15:00,46.0,35.7,30.43,ENE,74,7.0,11.2,67,0.00,,,0.00,VWS V14.01,2013-09-16 12:15:00,
2013-09-16 08:20:00,46.1,36.1,30.43,ESE,121,4.2,11.2,68,0.00,,,0.00,VWS V14.01,2013-09-16 12:20:00,
2013-09-16 08:25:00,46.3,37.1,30.43,East,89,1.4,11.2,70,0.00,,,0.00,VWS V14.01,2013-09-16 12:25:00,
2013-09-16 08:30:00,46.7,37.1,30.43,ENE,68,4.2,11.2,69,0.00,,,0.00,VWS V14.01,2013-09-16 12:30:00,
2013-09-16 08:35:00,46.9,36.5,30.43,ENE,66,8.4,11.2,67,0.00,,,0.00,VWS V14.01,2013-09-16 12:35:00,
2013-09-16 08:40:00,46.7,36.7,30.43,ESE,103,4.2,11.2,68,0.00,,,0.00,VWS V14.01,2013-09-16 12:40:00,
2013-09-16 08:45:00,46.9,36.9,30.44,NE,44,2.8,11.2,68,0.00,,,0.00,VWS V14.01,2013-09-16 12:45:00,
2013-09-16 08:50:00,47.1,37.1,30.44,ESE,118,2.8,11.2,68,0.00,,,0.00,VWS V14.01,2013-09-16 12:50:00,
2013-09-16 08:55:00,47.3,37.3,30.44,East,84,4.2,11.2,68,0.00,,,0.00,VWS V14.01,2013-09-16 12:55:00,
2013-09-16 09:00:00,47.1,36.3,30.44,SE,135,0.0,11.2,66,0.00,,,0.00,VWS V14.01,2013-09-16 13:00:00,
2013-09-16 09:05:00,47.1,36.7,30.44,ESE,108,4.2,11.2,67,0.00,,,0.00,VWS V14.01,2013-09-16 13:05:00,
2013-09-16 09:10:00,46.9,36.9,30.44,ESE,115,4.2,11.2,68,0.00,,,0.00,VWS V14.01,2013-09-16 13:10:00,
2013-09-16 09:15:00,46.9,36.9,30.45,East,84,1.4,11.2,68,0.00,,,0.00,VWS V14.01,2013-09-16 13:15:00,
2013-09-16 09:20:00,47.1,36.7,30.45,NE,47,4.2,11.2,67,0.00,,,0.00,VWS V14.01,2013-09-16 13:20:00,
2013-09-16 09:25:00,47.1,37.5,30.45,ESE,105,7.0,11.2,69,0.00,,,0.00,VWS V14.01,2013-09-16 13:25:00,
2013-09-16 09:30:00,47.1,37.1,30.45,East,79,5.6,11.2,68,0.00,,,0.00,VWS V14.01,2013-09-16 13:30:00,
2013-09-16 09:35:00,47.1,36.3,30.45,East,101,7.0,11.2,66,0.00,,,0.00,VWS V14.01,2013-09-16 13:35:00,
2013-09-16 09:40:00,47.3,37.3,30.45,ESE,106,7.0,11.2,68,0.00,,,0.00,VWS V14.01,2013-09-16 13:40:00,
2013-09-16 09:45:00,47.4,37.4,30.45,NNE,32,4.2,11.2,68,0.00,,,0.00,VWS V14.01,2013-09-16 13:45:00,
2013-09-16 09:50:00,47.3,36.5,30.46,East,99,4.2,11.2,66,0.00,,,0.00,VWS V14.01,2013-09-16 13:50:00,
2013-09-16 09:55:00,47.3,36.9,30.46,ESE,115,1.4,11.2,67,0.00,,,0.00,VWS V14.01,2013-09-16 13:55:00,
2013-09-16 10:00:00,47.7,37.3,30.46,ESE,103,4.2,4.2,67,0.00,,,0.00,VWS V14.01,2013-09-16 14:00:00,
2013-09-16 10:05:00,47.7,37.7,30.46,NE,53,5.6,8.4,68,0.00,,,0.00,VWS V14.01,2013-09-16 14:05:00,
2013-09-16 10:10:00,47.6,36.4,30.46,ENE,70,1.4,8.4,65,0.00,,,0.00,VWS V14.01,2013-09-16 14:10:00,
2013-09-16 10:15:00,47.9,36.7,30.46,East,98,5.6,8.4,65,0.00,,,0.00,VWS V14.01,2013-09-16 14:15:00,
2013-09-16 10:20:00,47.5,35.5,30.47,East,95,5.6,8.4,63,0.00,,,0.00,VWS V14.01,2013-09-16 14:20:00,
2013-09-16 10:25:00,47.7,35.7,30.47,ESE,104,5.6,8.4,63,0.00,,,0.00,VWS V14.01,2013-09-16 14:25:00,
2013-09-16 10:30:00,47.7,36.5,30.47,NE,53,4.2,8.4,65,0.00,,,0.00,VWS V14.01,2013-09-16 14:30:00,
2013-09-16 10:35:00,48.1,35.3,30.47,ESE,116,4.2,8.4,61,0.00,,,0.00,VWS V14.01,2013-09-16 14:35:00,
2013-09-16 10:40:00,48.1,36.1,30.47,ENE,71,1.4,8.4,63,0.00,,,0.00,VWS V14.01,2013-09-16 14:40:00,
2013-09-16 10:45:00,48.6,35.4,30.47,NE,49,2.8,8.4,60,0.00,,,0.00,VWS V14.01,2013-09-16 14:45:00,
2013-09-16 10:50:00,48.6,35.4,30.47,SSE,163,0.0,8.4,60,0.00,,,0.00,VWS V14.01,2013-09-16 14:50:00,
2013-09-16 10:55:00,48.6,35.4,30.48,NE,56,0.0,8.4,60,0.00,,,0.00,VWS V14.01,2013-09-16 14:55:00,
2013-09-16 11:00:00,49.0,35.7,30.47,South,170,1.4,8.4,60,0.00,,,0.00,VWS V14.01,2013-09-16 15:00:00,
2013-09-16 11:05:00,49.3,35.2,30.47,SE,125,1.4,8.4,58,0.00,,,0.00,VWS V14.01,2013-09-16 15:05:00,
2013-09-16 11:10:00,49.0,35.7,30.47,SE,143,2.8,8.4,60,0.00,,,0.00,VWS V14.01,2013-09-16 15:10:00,
2013-09-16 11:15:00,48.9,36.1,30.48,NNE,13,1.4,8.4,61,0.00,,,0.00,VWS V14.01,2013-09-16 15:15:00,
2013-09-16 11:20:00,48.9,36.5,30.47,ESE,103,2.8,8.4,62,0.00,,,0.00,VWS V14.01,2013-09-16 15:20:00,
2013-09-16 11:25:00,49.1,36.2,30.47,East,91,2.8,8.4,61,0.00,,,0.00,VWS V14.01,2013-09-16 15:25:00,
2013-09-16 11:30:00,49.3,36.4,30.48,ENE,60,1.4,8.4,61,0.00,,,0.00,VWS V14.01,2013-09-16 15:30:00,
2013-09-16 11:35:00,49.3,36.0,30.48,ESE,105,2.8,8.4,60,0.00,,,0.00,VWS V14.01,2013-09-16 15:35:00,
2013-09-16 11:40:00,49.2,35.9,30.48,East,88,4.2,8.4,60,0.00,,,0.00,VWS V14.01,2013-09-16 15:40:00,
2013-09-16 11:45:00,49.1,36.2,30.48,ESE,105,2.8,8.4,61,0.00,,,0.00,VWS V14.01,2013-09-16 15:45:00,
2013-09-16 11:50:00,49.1,35.4,30.48,ESE,115,2.8,8.4,59,0.00,,,0.00,VWS V14.01,2013-09-16 15:50:00,
2013-09-16 11:55:00,49.4,36.1,30.47,ESE,106,1.4,8.4,60,0.00,,,0.00,VWS V14.01,2013-09-16 15:55:00,
2013-09-16 12:00:00,49.7,36.8,30.47,North,4,4.2,4.2,61,0.00,,,0.00,VWS V14.01,2013-09-16 16:00:00,
2013-09-16 12:05:00,50.2,36.9,30.47,NE,47,4.2,5.6,60,0.00,,,0.00,VWS V14.01,2013-09-16 16:05:00,
2013-09-16 12:10:00,50.0,35.8,30.47,North,351,5.6,7.0,58,0.00,,,0.00,VWS V14.01,2013-09-16 16:10:00,
2013-09-16 12:15:00,49.9,36.2,30.47,NNW,347,2.8,7.0,59,0.00,,,0.00,VWS V14.01,2013-09-16 16:15:00,
2013-09-16 12:20:00,49.8,36.5,30.47,NNE,23,2.8,7.0,60,0.00,,,0.00,VWS V14.01,2013-09-16 16:20:00,
2013-09-16 12:25:00,50.3,36.1,30.47,NNW,332,1.4,7.0,58,0.00,,,0.00,VWS V14.01,2013-09-16 16:25:00,
2013-09-16 12:30:00,50.1,35.9,30.47,East,85,4.2,7.0,58,0.00,,,0.00,VWS V14.01,2013-09-16 16:30:00,
2013-09-16 12:35:00,50.3,36.1,30.47,NE,43,4.2,7.0,58,0.00,,,0.00,VWS V14.01,2013-09-16 16:35:00,
2013-09-16 12:40:00,50.3,37.4,30.47,North,357,4.2,7.0,61,0.00,,,0.00,VWS V14.01,2013-09-16 16:40:00,
2013-09-16 12:45:00,50.5,37.2,30.47,NE,46,5.6,8.4,60,0.00,,,0.00,VWS V14.01,2013-09-16 16:45:00,
2013-09-16 12:50:00,50.5,37.2,30.47,ENE,70,4.2,8.4,60,0.00,,,0.00,VWS V14.01,2013-09-16 16:50:00,
2013-09-16 12:55:00,50.6,37.7,30.47,ENE,71,2.8,11.2,61,0.00,,,0.00,VWS V14.01,2013-09-16 16:55:00,
2013-09-16 13:00:00,50.9,37.1,30.47,NNE,18,4.2,11.2,59,0.00,,,0.00,VWS V14.01,2013-09-16 17:00:00,
2013-09-16 13:05:00,50.5,37.2,30.47,NNW,342,8.4,11.2,60,0.00,,,0.00,VWS V14.01,2013-09-16 17:05:00,
2013-09-16 13:10:00,50.4,36.6,30.46,WNW,300,5.6,12.6,59,0.00,,,0.00,VWS V14.01,2013-09-16 17:10:00,
2013-09-16 13:15:00,50.6,37.7,30.46,NNW,338,5.6,12.6,61,0.00,,,0.00,VWS V14.01,2013-09-16 17:15:00,
2013-09-16 13:20:00,50.7,37.8,30.46,NE,47,2.8,12.6,61,0.00,,,0.00,VWS V14.01,2013-09-16 17:20:00,
2013-09-16 13:25:00,50.8,37.8,30.46,North,354,4.2,12.6,61,0.00,,,0.00,VWS V14.01,2013-09-16 17:25:00,
2013-09-16 13:30:00,51.0,37.6,30.46,NNW,341,7.0,12.6,60,0.00,,,0.00,VWS V14.01,2013-09-16 17:30:00,
2013-09-16 13:35:00,51.0,38.0,30.46,NNW,331,4.2,14.0,61,0.00,,,0.00,VWS V14.01,2013-09-16 17:35:00,
2013-09-16 13:40:00,51.1,39.4,30.46,North,354,7.0,14.0,64,0.00,,,0.00,VWS V14.01,2013-09-16 17:40:00,
2013-09-16 13:45:00,51.0,38.0,30.46,NE,34,7.0,14.0,61,0.00,,,0.00,VWS V14.01,2013-09-16 17:45:00,
2013-09-16 13:50:00,51.4,39.2,30.46,NNW,344,8.4,14.0,63,0.00,,,0.00,VWS V14.01,2013-09-16 17:50:00,
2013-09-16 13:55:00,52.4,38.9,30.46,NNE,23,5.6,14.0,60,0.00,,,0.00,VWS V14.01,2013-09-16 17:55:00,
2013-09-16 14:00:00,52.3,38.8,30.46,WSW,253,9.8,12.6,60,0.00,,,0.00,VWS V14.01,2013-09-16 18:00:00,
2013-09-16 14:05:00,52.1,38.7,30.46,NNE,33,8.4,15.4,60,0.00,,,0.00,VWS V14.01,2013-09-16 18:05:00,
2013-09-16 14:10:00,51.8,38.4,30.46,NNE,26,9.8,15.4,60,0.00,,,0.00,VWS V14.01,2013-09-16 18:10:00,
2013-09-16 14:15:00,51.5,37.7,30.46,NNW,330,7.0,15.4,59,0.00,,,0.00,VWS V14.01,2013-09-16 18:15:00,
2013-09-16 14:20:00,51.6,39.0,30.46,NNW,344,5.6,15.4,62,0.00,,,0.00,VWS V14.01,2013-09-16 18:20:00,
2013-09-16 14:25:00,52.1,37.8,30.46,NW,315,4.2,15.4,58,0.00,,,0.00,VWS V14.01,2013-09-16 18:25:00,
2013-09-16 14:30:00,52.2,35.6,30.46,North,350,9.8,15.4,53,0.00,,,0.00,VWS V14.01,2013-09-16 18:30:00,
2013-09-16 14:35:00,52.8,37.5,30.46,NW,315,5.6,15.4,56,0.00,,,0.00,VWS V14.01,2013-09-16 18:35:00,
2013-09-16 14:40:00,52.8,35.2,30.46,NNW,344,7.0,15.4,51,0.00,,,0.00,VWS V14.01,2013-09-16 18:40:00,
2013-09-16 14:45:00,52.8,34.2,30.46,NNW,341,7.0,15.4,49,0.00,,,0.00,VWS V14.01,2013-09-16 18:45:00,
2013-09-16 14:50:00,52.8,34.7,30.45,NNE,33,2.8,15.4,50,0.00,,,0.00,VWS V14.01,2013-09-16 18:50:00,
2013-09-16 14:55:00,52.7,36.1,30.45,SSW,201,2.8,15.4,53,0.00,,,0.00,VWS V14.01,2013-09-16 18:55:00,
2013-09-16 15:00:00,53.1,34.5,30.45,West,266,2.8,15.4,49,0.00,,,0.00,VWS V14.01,2013-09-16 19:00:00,
2013-09-16 15:05:00,53.3,38.5,30.45,NNW,348,5.6,15.4,57,0.00,,,0.00,VWS V14.01,2013-09-16 19:05:00,
2013-09-16 15:10:00,53.2,37.0,30.45,NNE,18,9.8,15.4,54,0.00,,,0.00,VWS V14.01,2013-09-16 19:10:00,
2013-09-16 15:15:00,53.0,37.3,30.45,NNW,334,4.2,15.4,55,0.00,,,0.00,VWS V14.01,2013-09-16 19:15:00,
2013-09-16 15:20:00,53.3,38.5,30.45,North,353,5.6,15.4,57,0.00,,,0.00,VWS V14.01,2013-09-16 19:20:00,
2013-09-16 15:25:00,53.5,33.8,30.44,NNW,329,4.2,15.4,47,0.00,,,0.00,VWS V14.01,2013-09-16 19:25:00,
2013-09-16 15:30:00,53.6,35.9,30.44,NNW,329,2.8,15.4,51,0.00,,,0.00,VWS V14.01,2013-09-16 19:30:00,
2013-09-16 15:35:00,53.8,37.1,30.44,NNE,15,2.8,15.4,53,0.00,,,0.00,VWS V14.01,2013-09-16 19:35:00,
2013-09-16 15:40:00,53.9,36.2,30.44,WNW,288,4.2,15.4,51,0.00,,,0.00,VWS V14.01,2013-09-16 19:40:00,
2013-09-16 15:45:00,53.7,35.5,30.44,NNW,337,7.0,15.4,50,0.00,,,0.00,VWS V14.01,2013-09-16 19:45:00,
2013-09-16 15:50:00,53.3,35.2,30.44,NNE,15,9.8,15.4,50,0.00,,,0.00,VWS V14.01,2013-09-16 19:50:00,
2013-09-16 15:55:00,53.3,35.2,30.44,WSW,256,2.8,15.4,50,0.00,,,0.00,VWS V14.01,2013-09-16 19:55:00,
2013-09-16 16:00:00,53.4,36.2,30.44,East,89,4.2,14.0,52,0.00,,,0.00,VWS V14.01,2013-09-16 20:00:00,
2013-09-16 16:05:00,53.7,36.0,30.44,NW,311,4.2,15.4,51,0.00,,,0.00,VWS V14.01,2013-09-16 20:05:00,
2013-09-16 16:10:00,53.6,31.7,30.44,WNW,298,5.6,15.4,43,0.00,,,0.00,VWS V14.01,2013-09-16 20:10:00,
2013-09-16 16:15:00,53.8,34.6,30.44,NW,305,5.6,15.4,48,0.00,,,0.00,VWS V14.01,2013-09-16 20:15:00,
2013-09-16 16:20:00,53.9,34.7,30.44,NW,319,9.8,15.4,48,0.00,,,0.00,VWS V14.01,2013-09-16 20:20:00,
2013-09-16 16:25:00,53.9,34.7,30.44,NNW,340,0.0,15.4,48,0.00,,,0.00,VWS V14.01,2013-09-16 20:25:00,
2013-09-16 16:30:00,53.9,34.7,30.43,North,9,11.2,15.4,48,0.00,,,0.00,VWS V14.01,2013-09-16 20:30:00,
2013-09-16 16:35:00,53.5,36.3,30.44,North,8,8.4,15.4,52,0.00,,,0.00,VWS V14.01,2013-09-16 20:35:00,
2013-09-16 16:40:00,53.3,36.1,30.43,North,355,5.6,15.4,52,0.00,,,0.00,VWS V14.01,2013-09-16 20:40:00,
2013-09-16 16:45:00,53.4,35.7,30.43,North,11,8.4,15.4,51,0.00,,,0.00,VWS V14.01,2013-09-16 20:45:00,
2013-09-16 16:50:00,53.3,36.1,30.43,NNW,345,7.0,15.4,52,0.00,,,0.00,VWS V14.01,2013-09-16 20:50:00,
2013-09-16 16:55:00,53.2,37.5,30.43,NW,324,4.2,15.4,55,0.00,,,0.00,VWS V14.01,2013-09-16 20:55:00,
2013-09-16 17:00:00,53.0,37.3,30.43,North,355,7.0,16.8,55,0.00,,,0.00,VWS V14.01,2013-09-16 21:00:00,
2013-09-16 17:05:00,53.1,37.4,30.43,NNE,13,4.2,16.8,55,0.00,,,0.00,VWS V14.01,2013-09-16 21:05:00,
2013-09-16 17:10:00,53.2,38.4,30.43,NNW,340,1.4,16.8,57,0.00,,,0.00,VWS V14.01,2013-09-16 21:10:00,
2013-09-16 17:15:00,53.6,39.2,30.43,North,4,7.0,16.8,58,0.00,,,0.00,VWS V14.01,2013-09-16 21:15:00,
2013-09-16 17:20:00,53.3,39.3,30.43,NNW,347,7.0,16.8,59,0.00,,,0.00,VWS V14.01,2013-09-16 21:20:00,
2013-09-16 17:25:00,53.2,39.7,30.43,North,4,8.4,16.8,60,0.00,,,0.00,VWS V14.01,2013-09-16 21:25:00,
2013-09-16 17:30:00,53.4,39.5,30.43,NNE,26,5.6,16.8,59,0.00,,,0.00,VWS V14.01,2013-09-16 21:30:00,
2013-09-16 17:35:00,53.4,40.3,30.43,NNW,342,2.8,16.8,61,0.00,,,0.00,VWS V14.01,2013-09-16 21:35:00,
2013-09-16 17:40:00,53.6,40.1,30.43,NW,324,0.0,16.8,60,0.00,,,0.00,VWS V14.01,2013-09-16 21:40:00,
2013-09-16 17:45:00,53.6,40.1,30.43,North,8,4.2,16.8,60,0.00,,,0.00,VWS V14.01,2013-09-16 21:45:00,
2013-09-16 17:50:00,53.5,40.4,30.43,North,357,8.4,16.8,61,0.00,,,0.00,VWS V14.01,2013-09-16 21:50:00,
2013-09-16 17:55:00,53.2,39.7,30.43,NNW,337,8.4,16.8,60,0.00,,,0.00,VWS V14.01,2013-09-16 21:55:00,
2013-09-16 18:00:00,53.2,40.5,30.43,NNW,345,9.8,11.2,62,0.00,,,0.00,VWS V14.01,2013-09-16 22:00:00,
2013-09-16 18:05:00,53.0,39.9,30.43,NNE,15,2.8,11.2,61,0.00,,,0.00,VWS V14.01,2013-09-16 22:05:00,
2013-09-16 18:10:00,53.3,41.0,30.43,North,1,7.0,11.2,63,0.00,,,0.00,VWS V14.01,2013-09-16 22:10:00,
2013-09-16 18:15:00,53.3,40.2,30.43,NNW,337,8.4,11.2,61,0.00,,,0.00,VWS V14.01,2013-09-16 22:15:00,
2013-09-16 18:20:00,53.4,40.3,30.43,WNW,297,2.8,11.2,61,0.00,,,0.00,VWS V14.01,2013-09-16 22:20:00,
2013-09-16 18:25:00,53.4,40.7,30.42,NNW,335,5.6,11.2,62,0.00,,,0.00,VWS V14.01,2013-09-16 22:25:00,
2013-09-16 18:30:00,53.4,39.9,30.42,NNW,344,1.4,11.2,60,0.00,,,0.00,VWS V14.01,2013-09-16 22:30:00,
2013-09-16 18:35:00,53.3,40.2,30.42,NW,325,4.2,11.2,61,0.00,,,0.00,VWS V14.01,2013-09-16 22:35:00,
2013-09-16 18:40:00,53.3,40.2,30.42,NW,325,1.4,11.2,61,0.00,,,0.00,VWS V14.01,2013-09-16 22:40:00,
2013-09-16 18:45:00,53.4,39.9,30.42,NW,309,4.2,11.2,60,0.00,,,0.00,VWS V14.01,2013-09-16 22:45:00,
2013-09-16 18:50:00,53.3,39.3,30.42,North,9,1.4,11.2,59,0.00,,,0.00,VWS V14.01,2013-09-16 22:50:00,
2013-09-16 18:55:00,53.2,40.1,30.42,West,273,2.8,11.2,61,0.00,,,0.00,VWS V14.01,2013-09-16 22:55:00,
2013-09-16 19:00:00,53.1,40.0,30.42,NNW,341,5.6,11.2,61,0.00,,,0.00,VWS V14.01,2013-09-16 23:00:00,
2013-09-16 19:05:00,52.8,39.7,30.42,NW,325,2.8,11.2,61,0.00,,,0.00,VWS V14.01,2013-09-16 23:05:00,
2013-09-16 19:10:00,52.5,39.9,30.42,NNW,330,4.2,11.2,62,0.00,,,0.00,VWS V14.01,2013-09-16 23:10:00,
2013-09-16 19:15:00,52.2,41.2,30.42,North,350,0.0,11.2,66,0.00,,,0.00,VWS V14.01,2013-09-16 23:15:00,
2013-09-16 19:20:00,51.6,41.0,30.42,NW,321,2.8,11.2,67,0.00,,,0.00,VWS V14.01,2013-09-16 23:20:00,
2013-09-16 19:25:00,50.6,39.7,30.41,NW,309,0.0,11.2,66,0.00,,,0.00,VWS V14.01,2013-09-16 23:25:00,
2013-09-16 19:30:00,49.7,40.0,30.42,NW,307,0.0,11.2,69,0.00,,,0.00,VWS V14.01,2013-09-16 23:30:00,
2013-09-16 19:35:00,49.1,40.5,30.41,WNW,302,0.0,11.2,72,0.00,,,0.00,VWS V14.01,2013-09-16 23:35:00,
2013-09-16 19:40:00,48.6,40.0,30.42,WNW,290,0.0,11.2,72,0.00,,,0.00,VWS V14.01,2013-09-16 23:40:00,
2013-09-16 19:45:00,48.1,40.2,30.41,WNW,286,0.0,11.2,74,0.00,,,0.00,VWS V14.01,2013-09-16 23:45:00,
2013-09-16 19:50:00,47.4,40.6,30.41,WNW,286,0.0,11.2,77,0.00,,,0.00,VWS V14.01,2013-09-16 23:50:00,
2013-09-16 19:55:00,46.7,40.5,30.41,WSW,249,1.4,11.2,79,0.00,,,0.00,VWS V14.01,2013-09-16 23:55:00,
2013-09-16 20:00:00,46.1,40.6,30.41,WSW,250,0.0,0.0,81,0.00,,,0.00,VWS V14.01,2013-09-17 00:00:00,
2013-09-16 20:05:00,45.6,40.4,30.41,WSW,249,0.0,1.4,82,0.00,,,0.00,VWS V14.01,2013-09-17 00:05:00,
2013-09-16 20:10:00,45.0,40.2,30.41,WSW,249,0.0,1.4,83,0.00,,,0.00,VWS V14.01,2013-09-17 00:10:00,
2013-09-16 20:15:00,44.4,39.9,30.41,WSW,250,0.0,2.8,84,0.00,,,0.00,VWS V14.01,2013-09-17 00:15:00,
2013-09-16 20:20:00,43.8,39.6,30.41,WSW,250,0.0,2.8,85,0.00,,,0.00,VWS V14.01,2013-09-17 00:20:00,
2013-09-16 20:25:00,43.6,39.7,30.41,WSW,250,0.0,2.8,86,0.00,,,0.00,VWS V14.01,2013-09-17 00:25:00,
2013-09-16 20:30:00,43.7,39.8,30.42,WSW,246,1.4,2.8,86,0.00,,,0.00,VWS V14.01,2013-09-17 00:30:00,
2013-09-16 20:35:00,43.6,39.7,30.42,WSW,246,0.0,2.8,86,0.00,,,0.00,VWS V14.01,2013-09-17 00:35:00,
2013-09-16 20:40:00,43.3,39.4,30.42,WSW,246,0.0,2.8,86,0.00,,,0.00,VWS V14.01,2013-09-17 00:40:00,
2013-09-16 20:45:00,42.9,39.9,30.42,SW,215,1.4,2.8,89,0.00,,,0.00,VWS V14.01,2013-09-17 00:45:00,
2013-09-16 20:50:00,42.4,39.4,30.42,SW,219,0.0,2.8,89,0.00,,,0.00,VWS V14.01,2013-09-17 00:50:00,
2013-09-16 20:55:00,42.1,39.4,30.42,SSW,210,1.4,2.8,90,0.00,,,0.00,VWS V14.01,2013-09-17 00:55:00,
2013-09-16 21:00:00,41.7,39.0,30.42,SSW,210,0.0,2.8,90,0.00,,,0.00,VWS V14.01,2013-09-17 01:00:00,
2013-09-16 21:05:00,41.4,39.0,30.42,SSW,210,0.0,2.8,91,0.00,,,0.00,VWS V14.01,2013-09-17 01:05:00,
2013-09-16 21:10:00,41.4,38.7,30.42,SSW,210,0.0,2.8,90,0.00,,,0.00,VWS V14.01,2013-09-17 01:10:00,
2013-09-16 21:15:00,41.2,38.5,30.42,SSW,204,1.4,2.8,90,0.00,,,0.00,VWS V14.01,2013-09-17 01:15:00,
2013-09-16 21:20:00,41.0,38.3,30.42,SSW,201,0.0,2.8,90,0.00,,,0.00,VWS V14.01,2013-09-17 01:20:00,
2013-09-16 21:25:00,40.6,38.2,30.42,SSW,203,0.0,2.8,91,0.00,,,0.00,VWS V14.01,2013-09-17 01:25:00,
2013-09-16 21:30:00,40.5,38.1,30.42,SW,215,0.0,2.8,91,0.00,,,0.00,VWS V14.01,2013-09-17 01:30:00,
2013-09-16 21:35:00,40.5,38.1,30.42,SSW,205,1.4,2.8,91,0.00,,,0.00,VWS V14.01,2013-09-17 01:35:00,
2013-09-16 21:40:00,40.1,38.0,30.42,South,176,0.0,2.8,92,0.00,,,0.00,VWS V14.01,2013-09-17 01:40:00,
2013-09-16 21:45:00,39.8,37.7,30.42,South,176,0.0,2.8,92,0.00,,,0.00,VWS V14.01,2013-09-17 01:45:00,
2013-09-16 21:50:00,39.7,37.6,30.42,South,176,0.0,2.8,92,0.00,,,0.00,VWS V14.01,2013-09-17 01:50:00,
2013-09-16 21:55:00,39.4,37.3,30.42,South,177,1.4,2.8,92,0.00,,,0.00,VWS V14.01,2013-09-17 01:55:00,
2013-09-16 22:00:00,39.1,37.0,30.42,South,178,0.0,0.0,92,0.00,,,0.00,VWS V14.01,2013-09-17 02:00:00,
2013-09-16 22:05:00,38.9,37.0,30.42,South,178,1.4,1.4,93,0.00,,,0.00,VWS V14.01,2013-09-17 02:05:00,
2013-09-16 22:10:00,38.8,37.0,30.42,SSW,212,1.4,2.8,93,0.00,,,0.00,VWS V14.01,2013-09-17 02:10:00,
2013-09-16 22:15:00,38.6,36.8,30.42,SSW,199,1.4,5.6,93,0.00,,,0.00,VWS V14.01,2013-09-17 02:15:00,
2013-09-16 22:20:00,38.3,36.5,30.42,South,175,0.0,5.6,93,0.00,,,0.00,VWS V14.01,2013-09-17 02:20:00,
2013-09-16 22:25:00,38.4,36.6,30.42,WSW,251,0.0,5.6,93,0.00,,,0.00,VWS V14.01,2013-09-17 02:25:00,
2013-09-16 22:30:00,38.7,36.6,30.42,WSW,252,1.4,5.6,92,0.00,,,0.00,VWS V14.01,2013-09-17 02:30:00,
2013-09-16 22:35:00,38.8,36.7,30.42,South,179,1.4,5.6,92,0.00,,,0.00,VWS V14.01,2013-09-17 02:35:00,
2013-09-16 22:40:00,38.8,36.7,30.42,South,186,0.0,5.6,92,0.00,,,0.00,VWS V14.01,2013-09-17 02:40:00,
2013-09-16 22:45:00,38.7,36.6,30.42,SW,235,0.0,5.6,92,0.00,,,0.00,VWS V14.01,2013-09-17 02:45:00,
2013-09-16 22:50:00,39.1,37.0,30.42,SW,228,2.8,5.6,92,0.00,,,0.00,VWS V14.01,2013-09-17 02:50:00,
2013-09-16 22:55:00,39.5,36.8,30.42,SW,232,0.0,5.6,90,0.00,,,0.00,VWS V14.01,2013-09-17 02:55:00,
2013-09-16 23:00:00,39.2,36.5,30.42,SW,232,0.0,5.6,90,0.00,,,0.00,VWS V14.01,2013-09-17 03:00:00,
2013-09-16 23:05:00,38.9,36.5,30.42,SW,232,1.4,5.6,91,0.00,,,0.00,VWS V14.01,2013-09-17 03:05:00,
2013-09-16 23:10:00,38.7,36.3,30.42,SW,232,0.0,5.6,91,0.00,,,0.00,VWS V14.01,2013-09-17 03:10:00,
2013-09-16 23:15:00,38.7,36.3,30.42,SW,232,0.0,5.6,91,0.00,,,0.00,VWS V14.01,2013-09-17 03:15:00,
2013-09-16 23:20:00,38.6,36.2,30.42,SW,232,0.0,5.6,91,0.00,,,0.00,VWS V14.01,2013-09-17 03:20:00,
2013-09-16 23:25:00,38.6,36.2,30.42,SW,232,1.4,5.6,91,0.00,,,0.00,VWS V14.01,2013-09-17 03:25:00,
2013-09-16 23:30:00,38.7,36.3,30.42,SW,232,1.4,5.6,91,0.00,,,0.00,VWS V14.01,2013-09-17 03:30:00,
2013-09-16 23:35:00,38.8,36.4,30.42,SW,232,0.0,5.6,91,0.00,,,0.00,VWS V14.01,2013-09-17 03:35:00,
2013-09-16 23:40:00,38.7,36.3,30.42,SW,232,0.0,5.6,91,0.00,,,0.00,VWS V14.01,2013-09-17 03:40:00,
2013-09-16 23:45:00,38.5,36.1,30.42,SW,226,1.4,5.6,91,0.00,,,0.00,VWS V14.01,2013-09-17 03:45:00,
2013-09-16 23:49:00,38.3,35.9,30.42,SW,228,1.4,5.6,91,0.00,,,0.00,VWS V14.01,2013-09-17 03:49:00,
2013-09-16 23:54:00,38.4,36.0,30.42,SW,215,1.4,5.6,91,0.00,,,0.00,VWS V14.01,2013-09-17 03:54:00,
2013-09-16 23:59:00,38.5,36.1,30.42,WSW,250,1.4,5.6,91,0.00,,,0.00,VWS V14.01,2013-09-17 03:59:00,